Flag for U.S.A. Weather past 2 weeks in Hialeah, Florida, U.S.A.

Now
78 °F

Sunny.


Feels Like: 81 °F
Forecast: 78 / 87 °F
Wind: 3 mph from West

Location: Opa Locka Airport

Current Time: Jul 31, 2014 at 8:13:57 PM

Latest Report: Jul 31, 2014 at 7:53 PM


Visibility: 10 mi

Pressure: 30.00 "Hg

Humidity: 87%

Dew point: 74 °F

Location of HialeahLocation

Historic Weather in Hialeah — Graph

°F

Hialeah temperature yesterday

Maximum temperature yesterday: 93 °F (at 2:53 PM)
Minimum temperature yesterday: 76 °F (at 7:00 PM)
Average temperature yesterday: 81 °F

Past Weeks' High & Low Weather Summary

 TemperatureHumidityPressure
High96 °F (Jul 28, 4:53 PM)100% (Jul 30, 7:00 PM)30.13 "Hg (Jul 30, 7:00 PM)
Low75 °F (Jul 25, 6:53 AM)40% (Jul 28, 4:53 PM)29.94 "Hg (Jul 30, 3:53 PM)
Average83 °F76%30.04 "Hg
* Reported Jul 16 6:53 PM — Jul 31 6:53 PM, Hialeah, Weather by CustomWeather, © 2014

Note: Actual official high and low records may vary slightly from our data, if they occured in-between our weather recording intervals... More about our weather records

Advertising

Hialeah weather history for previous 24 hours

 ConditionsComfort  
Time TempWeatherWind HumidityBarometerVisibility
6:53 PM
Jul 31
77 °FBroken clouds.3 mph90%30.00 "Hg10 mi
5:53 PM77 °FThundershowers. Partly sunny.5 mph88%30.00 "Hg10 mi
4:53 PM80 °FThundershowers. Mostly cloudy.7 mph85%29.98 "Hg10 mi
4:01 PM79 °FThundershowers. Mostly cloudy.12 mph84%29.97 "Hg10 mi
2:53 PM83 °FPartly sunny.16 mph79%29.97 "Hg10 mi
1:53 PM89 °FOvercast.No wind55%29.98 "Hg10 mi
12:53 PM90 °FOvercast.10 mph56%29.99 "Hg10 mi
11:53 AM89 °FScattered clouds.10 mph59%30.01 "Hg10 mi
10:53 AM88 °FPassing clouds.8 mph61%30.00 "Hg10 mi
9:53 AM86 °FPassing clouds.6 mph67%30.01 "Hg10 mi
8:53 AM84 °FScattered clouds.6 mph74%30.00 "Hg10 mi
7:53 AM79 °FPassing clouds.No wind88%29.98 "Hg10 mi
6:53 AM77 °FPassing clouds.No wind90%29.98 "Hg10 mi
5:53 AM77 °FClear.3 mph90%29.97 "Hg10 mi
4:53 AM77 °FClear.3 mph88%29.96 "Hg10 mi
3:53 AM76 °FClear.5 mph88%29.97 "Hg10 mi
2:53 AM77 °FClear.6 mph88%29.98 "Hg10 mi
1:53 AM77 °FClear.8 mph90%29.98 "Hg10 mi
12:53 AM77 °FClear.3 mph94%29.99 "Hg10 mi
11:53 PM
Jul 30
77 °FPassing clouds.No wind94%30.00 "Hg10 mi
10:53 PM77 °FPassing clouds.3 mph96%30.00 "Hg10 mi
9:53 PM77 °FPassing clouds.No wind100%29.99 "Hg10 mi
8:53 PM77 °FPassing clouds.5 mph100%29.98 "Hg10 mi
Weather by CustomWeather, © 2014

See weather overviewHow to use our weather pages